Location: Bad Salzschlirf
(50.3750°N, 9.3000°E)
Time: 07:33:09
(UTC+02:00)

ISS - Visible Passes

Search period start: 21 October 2018 00:00
Search period end: 30 October 2018 23:00
Orbit: 403 x 408 km, 51.6° (Epoch: 21 October)

Date Brightness Start Highest point End Pass type
(mag) Time Alt. Az. Time Alt. Az. Time Alt. Az.
26 Oct -0.7 07:07:08 10° SSE 07:08:41 13° SE 07:10:14 10° ESE visible
28 Oct -1.6 05:58:05 10° SSW 06:00:46 24° SE 06:03:29 10° E visible
29 Oct -1.0 05:06:56 10° S 05:08:56 15° SE 05:10:57 10° ESE visible
30 Oct -2.7 05:50:05 12° SW 05:52:57 42° SSE 05:56:05 10° E visible
